Wetterdaten: Dienstag, 24.07.2007
Datum Zeit Temp. A. Feuchte A. Luftdruck Regen Wind Richtung Richtung Sonnenschein UV Solar Windben
24.07.2007 00:00 17,0 C 86 % 998,2 hPa 0,0 mm 3,2 km/h (1 Bft) S 180 0 min 0 UV-I 0 W/m 9,7 km/h (2 Bft)
24.07.2007 00:10 17,2 C 85 % 998,2 hPa 0,0 mm 1,6 km/h (1 Bft) SO 135 0 min 0 UV-I 0 W/m 11,3 km/h (2 Bft)
24.07.2007 00:20 17,2 C 85 % 998,2 hPa 0,0 mm 3,2 km/h (1 Bft) SO 135 0 min 0 UV-I 0 W/m 11,3 km/h (2 Bft)
24.07.2007 00:30 17,2 C 85 % 998,2 hPa 0,0 mm 3,2 km/h (1 Bft) S 180 0 min 0 UV-I 0 W/m 9,7 km/h (2 Bft)
24.07.2007 00:40 17,2 C 85 % 998,2 hPa 0,0 mm 1,6 km/h (1 Bft) S-SO 157 0 min 0 UV-I 0 W/m 6,4 km/h (2 Bft)
24.07.2007 00:50 17,2 C 85 % 998,2 hPa 0,0 mm 3,2 km/h (1 Bft) S-SO 157 0 min 0 UV-I 0 W/m 9,7 km/h (2 Bft)
24.07.2007 01:00 17,2 C 85 % 998,3 hPa 0,0 mm 3,2 km/h (1 Bft) S-SW 202 0 min 0 UV-I 0 W/m 8,0 km/h (2 Bft)
24.07.2007 01:10 17,3 C 85 % 998,3 hPa 0,0 mm 3,2 km/h (1 Bft) S-SW 202 0 min 0 UV-I 0 W/m 8,0 km/h (2 Bft)
24.07.2007 01:20 17,3 C 84 % 998,3 hPa 0,0 mm 3,2 km/h (1 Bft) S-SW 202 0 min 0 UV-I 0 W/m 11,3 km/h (2 Bft)
24.07.2007 01:30 17,4 C 83 % 998,4 hPa 0,0 mm 3,2 km/h (1 Bft) SW 225 0 min 0 UV-I 0 W/m 14,5 km/h (3 Bft)
24.07.2007 01:40 17,6 C 82 % 998,1 hPa 0,0 mm 4,8 km/h (1 Bft) SW 225 0 min 0 UV-I 0 W/m 17,7 km/h (3 Bft)
24.07.2007 01:50 17,5 C 81 % 997,9 hPa 0,0 mm 3,2 km/h (1 Bft) S-SW 202 0 min 0 UV-I 0 W/m 9,7 km/h (2 Bft)
24.07.2007 02:00 17,4 C 81 % 997,9 hPa 0,0 mm 3,2 km/h (1 Bft) SW 225 0 min 0 UV-I 0 W/m 8,0 km/h (2 Bft)
24.07.2007 02:10 17,3 C 80 % 998,0 hPa 0,0 mm 3,2 km/h (1 Bft) S-SW 202 0 min 0 UV-I 0 W/m 14,5 km/h (3 Bft)
24.07.2007 02:20 17,2 C 79 % 997,8 hPa 0,0 mm 3,2 km/h (1 Bft) S-SW 202 0 min 0 UV-I 0 W/m 16,1 km/h (3 Bft)
24.07.2007 02:30 17,0 C 78 % 997,8 hPa 0,0 mm 3,2 km/h (1 Bft) S-SW 202 0 min 0 UV-I 0 W/m 9,7 km/h (2 Bft)
24.07.2007 02:40 16,9 C 78 % 997,9 hPa 0,0 mm 3,2 km/h (1 Bft) S-SW 202 0 min 0 UV-I 0 W/m 9,7 km/h (2 Bft)
24.07.2007 02:50 16,7 C 79 % 997,6 hPa 0,0 mm 3,2 km/h (1 Bft) S-SW 202 0 min 0 UV-I 0 W/m 8,0 km/h (2 Bft)
24.07.2007 03:00 16,6 C 79 % 997,4 hPa 0,0 mm 4,8 km/h (1 Bft) S 180 0 min 0 UV-I 0 W/m 11,3 km/h (2 Bft)
24.07.2007 03:10 16,4 C 78 % 997,3 hPa 0,0 mm 3,2 km/h (1 Bft) S-SW 202 0 min 0 UV-I 0 W/m 9,7 km/h (2 Bft)
24.07.2007 03:20 16,2 C 78 % 997,3 hPa 0,0 mm 3,2 km/h (1 Bft) S-SW 202 0 min 0 UV-I 0 W/m 8,0 km/h (2 Bft)
24.07.2007 03:30 16,2 C 78 % 997,4 hPa 0,0 mm 3,2 km/h (1 Bft) S 180 0 min 0 UV-I 0 W/m 14,5 km/h (3 Bft)
24.07.2007 03:40 16,1 C 78 % 997,3 hPa 0,0 mm 3,2 km/h (1 Bft) S-SO 157 0 min 0 UV-I 0 W/m 9,7 km/h (2 Bft)
24.07.2007 03:50 16,0 C 78 % 997,4 hPa 0,0 mm 1,6 km/h (1 Bft) S 180 0 min 0 UV-I 0 W/m 11,3 km/h (2 Bft)
24.07.2007 04:00 15,9 C 78 % 997,4 hPa 0,0 mm 3,2 km/h (1 Bft) S 180 0 min 0 UV-I 0 W/m 11,3 km/h (2 Bft)
24.07.2007 04:10 15,8 C 78 % 997,2 hPa 0,0 mm 6,4 km/h (2 Bft) S-SW 202 0 min 0 UV-I 0 W/m 20,9 km/h (4 Bft)
24.07.2007 04:20 15,9 C 77 % 997,2 hPa 0,0 mm 6,4 km/h (2 Bft) S 180 0 min 0 UV-I 0 W/m 17,7 km/h (3 Bft)
24.07.2007 04:30 15,9 C 77 % 997,1 hPa 0,0 mm 6,4 km/h (2 Bft) S-SW 202 0 min 0 UV-I 0 W/m 20,9 km/h (4 Bft)
24.07.2007 04:40 15,9 C 77 % 997,0 hPa 0,0 mm 4,8 km/h (1 Bft) S-SW 202 0 min 0 UV-I 0 W/m 11,3 km/h (2 Bft)
24.07.2007 04:50 15,9 C 76 % 997,0 hPa 0,0 mm 3,2 km/h (1 Bft) S-SW 202 0 min 0 UV-I 0 W/m 11,3 km/h (2 Bft)
24.07.2007 05:00 15,9 C 75 % 996,9 hPa 0,0 mm 4,8 km/h (1 Bft) S-SW 202 0 min 0 UV-I 0 W/m 16,1 km/h (3 Bft)
24.07.2007 05:10 15,9 C 75 % 996,9 hPa 0,0 mm 4,8 km/h (1 Bft) S-SW 202 0 min 0 UV-I 0 W/m 12,9 km/h (3 Bft)
24.07.2007 05:20 16,1 C 75 % 996,8 hPa 0,0 mm 3,2 km/h (1 Bft) S-SW 202 0 min 0 UV-I 0 W/m 11,3 km/h (2 Bft)
24.07.2007 05:30 16,1 C 74 % 996,9 hPa 0,0 mm 3,2 km/h (1 Bft) SW 225 0 min 0 UV-I 0 W/m 11,3 km/h (2 Bft)
24.07.2007 05:40 16,1 C 75 % 996,9 hPa 0,0 mm 1,6 km/h (1 Bft) SW 225 0 min 0 UV-I 0 W/m 9,7 km/h (2 Bft)
24.07.2007 05:50 16,0 C 74 % 996,8 hPa 0,0 mm 3,2 km/h (1 Bft) S-SW 202 0 min 0 UV-I 0 W/m 6,4 km/h (2 Bft)
24.07.2007 06:00 15,9 C 73 % 996,9 hPa 0,0 mm 4,8 km/h (1 Bft) S-SW 202 0 min 0 UV-I 5 W/m 19,3 km/h (3 Bft)
24.07.2007 06:10 15,8 C 73 % 996,9 hPa 0,0 mm 4,8 km/h (1 Bft) S-SW 202 0 min 0 UV-I 7 W/m 12,9 km/h (3 Bft)
24.07.2007 06:20 15,8 C 73 % 996,9 hPa 0,0 mm 4,8 km/h (1 Bft) S-SW 202 0 min 0 UV-I 33 W/m 9,7 km/h (2 Bft)
24.07.2007 06:30 15,8 C 73 % 996,9 hPa 0,0 mm 4,8 km/h (1 Bft) SW 225 0 min 0 UV-I 44 W/m 16,1 km/h (3 Bft)
24.07.2007 06:40 15,8 C 72 % 996,7 hPa 0,0 mm 4,8 km/h (1 Bft) S-SW 202 0 min 0 UV-I 62 W/m 14,5 km/h (3 Bft)
24.07.2007 06:50 16,1 C 71 % 996,6 hPa 0,0 mm 3,2 km/h (1 Bft) S-SW 202 0 min 0 UV-I 79 W/m 17,7 km/h (3 Bft)
24.07.2007 07:00 16,4 C 70 % 996,5 hPa 0,0 mm 4,8 km/h (1 Bft) S 180 0 min 0 UV-I 93 W/m 11,3 km/h (2 Bft)
24.07.2007 07:10 16,4 C 70 % 996,6 hPa 0,0 mm 4,8 km/h (1 Bft) S-SW 202 0 min 0 UV-I 69 W/m 19,3 km/h (3 Bft)
24.07.2007 07:20 16,4 C 71 % 996,5 hPa 0,0 mm 3,2 km/h (1 Bft) S 180 0 min 0 UV-I 86 W/m 11,3 km/h (2 Bft)
24.07.2007 07:30 16,4 C 70 % 996,2 hPa 0,0 mm 4,8 km/h (1 Bft) S 180 10 min 0 UV-I 192 W/m 14,5 km/h (3 Bft)
24.07.2007 07:40 16,6 C 70 % 996,1 hPa 0,0 mm 3,2 km/h (1 Bft) S-SO 157 10 min 1 UV-I 239 W/m 11,3 km/h (2 Bft)
24.07.2007 07:50 17,0 C 68 % 996,0 hPa 0,0 mm 4,8 km/h (1 Bft) S 180 10 min 1 UV-I 274 W/m 11,3 km/h (2 Bft)
24.07.2007 08:00 17,1 C 68 % 995,8 hPa 0,0 mm 4,8 km/h (1 Bft) S 180 0 min 1 UV-I 153 W/m 17,7 km/h (3 Bft)
24.07.2007 08:10 17,1 C 68 % 995,7 hPa 0,0 mm 6,4 km/h (2 Bft) S 180 0 min 0 UV-I 130 W/m 20,9 km/h (4 Bft)
24.07.2007 08:20 17,1 C 67 % 995,6 hPa 0,0 mm 6,4 km/h (2 Bft) S-SW 202 0 min 1 UV-I 162 W/m 17,7 km/h (3 Bft)
24.07.2007 08:30 17,1 C 68 % 995,6 hPa 0,0 mm 4,8 km/h (1 Bft) S-SW 202 0 min 0 UV-I 111 W/m 14,5 km/h (3 Bft)
24.07.2007 08:40 16,8 C 71 % 995,4 hPa 0,3 mm 6,4 km/h (2 Bft) S-SW 202 0 min 0 UV-I 56 W/m 19,3 km/h (3 Bft)
24.07.2007 08:50 16,4 C 72 % 995,4 hPa 0,0 mm 4,8 km/h (1 Bft) S-SW 202 0 min 0 UV-I 56 W/m 16,1 km/h (3 Bft)
24.07.2007 09:00 16,2 C 75 % 995,4 hPa 0,3 mm 3,2 km/h (1 Bft) S-SO 157 0 min 0 UV-I 35 W/m 14,5 km/h (3 Bft)
24.07.2007 09:10 15,8 C 79 % 995,3 hPa 0,8 mm 4,8 km/h (1 Bft) S 180 0 min 0 UV-I 26 W/m 16,1 km/h (3 Bft)
24.07.2007 09:20 15,2 C 82 % 995,1 hPa 0,8 mm 4,8 km/h (1 Bft) S-SO 157 0 min 0 UV-I 28 W/m 16,1 km/h (3 Bft)
24.07.2007 09:30 14,8 C 86 % 995,1 hPa 0,8 mm 3,2 km/h (1 Bft) SO 135 0 min 0 UV-I 35 W/m 9,7 km/h (2 Bft)
24.07.2007 09:40 14,4 C 87 % 994,9 hPa 0,8 mm 4,8 km/h (1 Bft) S-SO 157 0 min 0 UV-I 30 W/m 11,3 km/h (2 Bft)
24.07.2007 09:50 14,3 C 88 % 994,8 hPa 0,5 mm 3,2 km/h (1 Bft) SO 135 0 min 0 UV-I 32 W/m 11,3 km/h (2 Bft)
24.07.2007 10:00 14,3 C 89 % 994,7 hPa 0,5 mm 3,2 km/h (1 Bft) O-SO 112 0 min 0 UV-I 63 W/m 8,0 km/h (2 Bft)
24.07.2007 10:10 14,3 C 89 % 994,5 hPa 0,3 mm 4,8 km/h (1 Bft) SO 135 0 min 1 UV-I 95 W/m 11,3 km/h (2 Bft)
24.07.2007 10:20 14,4 C 89 % 994,3 hPa 0,5 mm 4,8 km/h (1 Bft) SO 135 0 min 1 UV-I 74 W/m 12,9 km/h (3 Bft)
24.07.2007 10:30 14,5 C 89 % 994,1 hPa 0,3 mm 4,8 km/h (1 Bft) O-SO 112 0 min 0 UV-I 60 W/m 11,3 km/h (2 Bft)
24.07.2007 10:40 14,6 C 90 % 994,0 hPa 0,5 mm 4,8 km/h (1 Bft) S-SO 157 0 min 1 UV-I 70 W/m 17,7 km/h (3 Bft)
24.07.2007 10:50 14,7 C 89 % 993,9 hPa 0,5 mm 6,4 km/h (2 Bft) S-SO 157 0 min 0 UV-I 56 W/m 16,1 km/h (3 Bft)
24.07.2007 11:00 14,7 C 89 % 993,8 hPa 0,3 mm 4,8 km/h (1 Bft) S-SO 157 0 min 0 UV-I 47 W/m 20,9 km/h (4 Bft)
24.07.2007 11:10 14,7 C 89 % 993,8 hPa 0,3 mm 3,2 km/h (1 Bft) S-SO 157 0 min 1 UV-I 62 W/m 11,3 km/h (2 Bft)
24.07.2007 11:20 14,8 C 88 % 993,8 hPa 0,3 mm 4,8 km/h (1 Bft) S 180 0 min 1 UV-I 72 W/m 11,3 km/h (2 Bft)
24.07.2007 11:30 14,9 C 89 % 993,8 hPa 0,5 mm 3,2 km/h (1 Bft) S-SW 202 0 min 1 UV-I 86 W/m 11,3 km/h (2 Bft)
24.07.2007 11:40 15,0 C 88 % 993,7 hPa 0,0 mm 4,8 km/h (1 Bft) S-SW 202 0 min 1 UV-I 84 W/m 16,1 km/h (3 Bft)
24.07.2007 11:50 15,0 C 88 % 993,6 hPa 0,0 mm 6,4 km/h (2 Bft) S-SW 202 0 min 1 UV-I 104 W/m 17,7 km/h (3 Bft)
24.07.2007 12:00 15,0 C 87 % 993,6 hPa 0,0 mm 6,4 km/h (2 Bft) S-SW 202 0 min 1 UV-I 109 W/m 22,5 km/h (4 Bft)
24.07.2007 12:10 15,2 C 86 % 993,7 hPa 0,0 mm 8,0 km/h (2 Bft) S-SW 202 0 min 1 UV-I 83 W/m 25,7 km/h (4 Bft)
24.07.2007 12:20 15,3 C 86 % 993,8 hPa 0,0 mm 8,0 km/h (2 Bft) S-SW 202 0 min 1 UV-I 98 W/m 25,7 km/h (4 Bft)
24.07.2007 12:30 15,3 C 87 % 994,0 hPa 0,0 mm 8,0 km/h (2 Bft) S-SW 202 0 min 1 UV-I 123 W/m 24,1 km/h (4 Bft)
24.07.2007 12:40 15,1 C 89 % 994,1 hPa 0,3 mm 9,7 km/h (2 Bft) SW 225 0 min 1 UV-I 125 W/m 25,7 km/h (4 Bft)
24.07.2007 12:50 15,0 C 90 % 994,2 hPa 0,5 mm 11,3 km/h (2 Bft) SW 225 0 min 1 UV-I 91 W/m 35,4 km/h (5 Bft)
24.07.2007 13:00 15,0 C 91 % 994,6 hPa 0,0 mm 11,3 km/h (2 Bft) W-SW 247 0 min 1 UV-I 86 W/m 37,0 km/h (5 Bft)
24.07.2007 13:10 15,0 C 91 % 994,9 hPa 0,3 mm 16,1 km/h (3 Bft) W-SW 247 0 min 1 UV-I 88 W/m 37,0 km/h (5 Bft)
24.07.2007 13:20 15,0 C 91 % 995,2 hPa 0,0 mm 12,9 km/h (3 Bft) W 270 0 min 1 UV-I 63 W/m 30,6 km/h (5 Bft)
24.07.2007 13:30 15,0 C 90 % 995,7 hPa 0,0 mm 12,9 km/h (3 Bft) W 270 0 min 1 UV-I 91 W/m 30,6 km/h (5 Bft)
24.07.2007 13:40 15,3 C 89 % 996,0 hPa 0,0 mm 14,5 km/h (3 Bft) W-SW 247 10 min 4 UV-I 468 W/m 33,8 km/h (5 Bft)
24.07.2007 13:50 15,9 C 87 % 996,2 hPa 0,0 mm 12,9 km/h (3 Bft) W 270 0 min 3 UV-I 267 W/m 33,8 km/h (5 Bft)
24.07.2007 14:00 16,0 C 87 % 996,6 hPa 0,0 mm 11,3 km/h (2 Bft) W 270 0 min 3 UV-I 336 W/m 29,0 km/h (5 Bft)
24.07.2007 14:10 16,8 C 82 % 996,8 hPa 0,0 mm 11,3 km/h (2 Bft) W 270 0 min 7 UV-I 374 W/m 27,4 km/h (4 Bft)
24.07.2007 14:20 17,3 C 81 % 997,0 hPa 0,0 mm 11,3 km/h (2 Bft) W 270 0 min 4 UV-I 418 W/m 30,6 km/h (5 Bft)
24.07.2007 14:30 17,6 C 79 % 997,3 hPa 0,0 mm 11,3 km/h (2 Bft) W-SW 247 0 min 4 UV-I 206 W/m 30,6 km/h (5 Bft)
24.07.2007 14:40 17,2 C 81 % 997,6 hPa 0,0 mm 11,3 km/h (2 Bft) W-SW 247 0 min 1 UV-I 90 W/m 25,7 km/h (4 Bft)
24.07.2007 14:50 16,9 C 84 % 998,1 hPa 0,5 mm 16,1 km/h (3 Bft) W 270 0 min 1 UV-I 97 W/m 35,4 km/h (5 Bft)
24.07.2007 15:00 16,0 C 87 % 998,6 hPa 0,5 mm 14,5 km/h (3 Bft) W 270 0 min 2 UV-I 199 W/m 32,2 km/h (5 Bft)
24.07.2007 15:10 15,3 C 87 % 998,9 hPa 0,5 mm 19,3 km/h (3 Bft) W 270 0 min 1 UV-I 121 W/m 45,1 km/h (6 Bft)
24.07.2007 15:20 15,0 C 87 % 999,5 hPa 0,0 mm 17,7 km/h (3 Bft) W 270 0 min 1 UV-I 88 W/m 37,0 km/h (5 Bft)
24.07.2007 15:30 14,9 C 87 % 1000,0 hPa 0,0 mm 16,1 km/h (3 Bft) W 270 0 min 0 UV-I 53 W/m 38,6 km/h (5 Bft)
24.07.2007 15:40 14,8 C 87 % 1000,3 hPa 0,0 mm 14,5 km/h (3 Bft) W 270 0 min 0 UV-I 47 W/m 33,8 km/h (5 Bft)
24.07.2007 15:50 14,7 C 86 % 1000,6 hPa 0,0 mm 16,1 km/h (3 Bft) W 270 0 min 1 UV-I 107 W/m 38,6 km/h (5 Bft)
24.07.2007 16:00 14,8 C 84 % 1001,1 hPa 0,0 mm 19,3 km/h (3 Bft) W 270 0 min 1 UV-I 137 W/m 43,5 km/h (6 Bft)
24.07.2007 16:10 15,0 C 83 % 1001,8 hPa 0,0 mm 17,7 km/h (3 Bft) W 270 0 min 1 UV-I 135 W/m 40,2 km/h (6 Bft)
24.07.2007 16:20 15,1 C 82 % 1001,8 hPa 0,0 mm 16,1 km/h (3 Bft) W 270 0 min 2 UV-I 258 W/m 40,2 km/h (6 Bft)
24.07.2007 16:30 15,4 C 79 % 1002,2 hPa 0,0 mm 14,5 km/h (3 Bft) W 270 0 min 2 UV-I 243 W/m 32,2 km/h (5 Bft)
24.07.2007 16:40 15,4 C 81 % 1002,6 hPa 0,0 mm 14,5 km/h (3 Bft) W 270 0 min 2 UV-I 330 W/m 32,2 km/h (5 Bft)
24.07.2007 16:50 15,4 C 78 % 1002,8 hPa 0,0 mm 14,5 km/h (3 Bft) W 270 0 min 1 UV-I 169 W/m 32,2 km/h (5 Bft)
24.07.2007 17:00 15,6 C 79 % 1002,9 hPa 0,0 mm 12,9 km/h (3 Bft) W 270 0 min 1 UV-I 91 W/m 33,8 km/h (5 Bft)
24.07.2007 17:10 15,7 C 76 % 1003,2 hPa 0,0 mm 16,1 km/h (3 Bft) W 270 0 min 1 UV-I 105 W/m 46,7 km/h (6 Bft)
24.07.2007 17:20 15,8 C 75 % 1003,3 hPa 0,0 mm 17,7 km/h (3 Bft) W 270 0 min 1 UV-I 225 W/m 40,2 km/h (6 Bft)
24.07.2007 17:30 16,2 C 71 % 1003,9 hPa 0,0 mm 16,1 km/h (3 Bft) W 270 10 min 2 UV-I 345 W/m 37,0 km/h (5 Bft)
24.07.2007 17:40 16,4 C 70 % 1004,0 hPa 0,0 mm 16,1 km/h (3 Bft) W 270 10 min 2 UV-I 315 W/m 33,8 km/h (5 Bft)
24.07.2007 17:50 17,0 C 66 % 1004,1 hPa 0,0 mm 16,1 km/h (3 Bft) W 270 10 min 2 UV-I 339 W/m 38,6 km/h (5 Bft)
24.07.2007 18:00 17,5 C 64 % 1004,3 hPa 0,0 mm 16,1 km/h (3 Bft) W 270 10 min 2 UV-I 308 W/m 37,0 km/h (5 Bft)
24.07.2007 18:10 17,6 C 64 % 1004,4 hPa 0,0 mm 12,9 km/h (3 Bft) W 270 10 min 2 UV-I 598 W/m 29,0 km/h (5 Bft)
24.07.2007 18:20 17,3 C 67 % 1004,6 hPa 0,0 mm 9,7 km/h (2 Bft) W 270 0 min 1 UV-I 146 W/m 29,0 km/h (5 Bft)
24.07.2007 18:30 17,5 C 66 % 1004,6 hPa 0,0 mm 12,9 km/h (3 Bft) W 270 0 min 1 UV-I 220 W/m 29,0 km/h (5 Bft)
24.07.2007 18:40 17,2 C 68 % 1004,9 hPa 0,0 mm 14,5 km/h (3 Bft) W 270 0 min 1 UV-I 148 W/m 30,6 km/h (5 Bft)
24.07.2007 18:50 16,8 C 68 % 1005,4 hPa 0,0 mm 16,1 km/h (3 Bft) W 270 0 min 0 UV-I 70 W/m 32,2 km/h (5 Bft)
24.07.2007 19:00 16,4 C 74 % 1005,5 hPa 0,3 mm 11,3 km/h (2 Bft) W 270 0 min 0 UV-I 53 W/m 32,2 km/h (5 Bft)
24.07.2007 19:10 15,6 C 80 % 1005,5 hPa 0,0 mm 8,0 km/h (2 Bft) W-NW 292 0 min 0 UV-I 144 W/m 25,7 km/h (4 Bft)
24.07.2007 19:20 15,2 C 80 % 1005,7 hPa 0,0 mm 8,0 km/h (2 Bft) W-NW 292 0 min 0 UV-I 54 W/m 19,3 km/h (3 Bft)
24.07.2007 19:30 15,1 C 77 % 1005,9 hPa 0,3 mm 12,9 km/h (3 Bft) W 270 0 min 0 UV-I 51 W/m 35,4 km/h (5 Bft)
24.07.2007 19:40 14,8 C 79 % 1006,2 hPa 0,0 mm 11,3 km/h (2 Bft) W 270 10 min 0 UV-I 135 W/m 29,0 km/h (5 Bft)
24.07.2007 19:50 14,9 C 79 % 1006,3 hPa 0,0 mm 9,7 km/h (2 Bft) W 270 0 min 0 UV-I 109 W/m 24,1 km/h (4 Bft)
24.07.2007 20:00 15,0 C 79 % 1006,6 hPa 0,0 mm 8,0 km/h (2 Bft) W 270 10 min 0 UV-I 172 W/m 20,9 km/h (4 Bft)
24.07.2007 20:10 15,0 C 78 % 1006,6 hPa 0,0 mm 8,0 km/h (2 Bft) W 270 10 min 0 UV-I 197 W/m 22,5 km/h (4 Bft)
24.07.2007 20:20 15,1 C 78 % 1006,7 hPa 0,0 mm 8,0 km/h (2 Bft) W 270 10 min 0 UV-I 121 W/m 27,4 km/h (4 Bft)
24.07.2007 20:30 15,2 C 78 % 1006,8 hPa 0,0 mm 8,0 km/h (2 Bft) W 270 0 min 0 UV-I 40 W/m 19,3 km/h (3 Bft)
24.07.2007 20:40 15,3 C 77 % 1006,8 hPa 0,0 mm 9,7 km/h (2 Bft) W 270 0 min 0 UV-I 40 W/m 22,5 km/h (4 Bft)
24.07.2007 20:50 15,4 C 76 % 1007,0 hPa 0,0 mm 9,7 km/h (2 Bft) W 270 0 min 0 UV-I 32 W/m 22,5 km/h (4 Bft)
24.07.2007 21:00 15,4 C 77 % 1007,1 hPa 0,0 mm 8,0 km/h (2 Bft) W 270 10 min 0 UV-I 33 W/m 22,5 km/h (4 Bft)
24.07.2007 21:10 15,4 C 76 % 1007,3 hPa 0,0 mm 11,3 km/h (2 Bft) W 270 10 min 0 UV-I 33 W/m 30,6 km/h (5 Bft)
24.07.2007 21:20 15,3 C 75 % 1007,6 hPa 0,0 mm 11,3 km/h (2 Bft) W 270 0 min 0 UV-I 28 W/m 25,7 km/h (4 Bft)
24.07.2007 21:30 15,3 C 75 % 1007,8 hPa 0,0 mm 9,7 km/h (2 Bft) W 270 0 min 0 UV-I 0 W/m 27,4 km/h (4 Bft)
24.07.2007 21:40 15,2 C 75 % 1008,0 hPa 0,0 mm 11,3 km/h (2 Bft) W 270 0 min 0 UV-I 0 W/m 25,7 km/h (4 Bft)
24.07.2007 21:50 15,1 C 76 % 1008,1 hPa 0,0 mm 8,0 km/h (2 Bft) W 270 0 min 0 UV-I 0 W/m 22,5 km/h (4 Bft)
24.07.2007 22:00 15,0 C 78 % 1008,2 hPa 0,0 mm 8,0 km/h (2 Bft) W 270 0 min 0 UV-I 0 W/m 19,3 km/h (3 Bft)
24.07.2007 22:10 14,8 C 79 % 1008,4 hPa 0,0 mm 8,0 km/h (2 Bft) W-SW 247 0 min 0 UV-I 0 W/m 22,5 km/h (4 Bft)
24.07.2007 22:20 14,6 C 81 % 1008,8 hPa 0,0 mm 6,4 km/h (2 Bft) W 270 0 min 0 UV-I 0 W/m 20,9 km/h (4 Bft)
24.07.2007 22:30 14,5 C 82 % 1008,9 hPa 0,0 mm 8,0 km/h (2 Bft) W 270 0 min 0 UV-I 0 W/m 22,5 km/h (4 Bft)
24.07.2007 22:40 14,4 C 82 % 1009,0 hPa 0,0 mm 6,4 km/h (2 Bft) W 270 0 min 0 UV-I 0 W/m 16,1 km/h (3 Bft)
24.07.2007 22:50 14,4 C 82 % 1009,2 hPa 0,0 mm 4,8 km/h (1 Bft) W-SW 247 0 min 0 UV-I 0 W/m 14,5 km/h (3 Bft)
24.07.2007 23:00 14,2 C 83 % 1009,3 hPa 0,0 mm 4,8 km/h (1 Bft) W-SW 247 0 min 0 UV-I 0 W/m 11,3 km/h (2 Bft)
24.07.2007 23:10 14,2 C 84 % 1009,4 hPa 0,0 mm 6,4 km/h (2 Bft) W-SW 247 0 min 0 UV-I 0 W/m 19,3 km/h (3 Bft)
24.07.2007 23:20 14,2 C 84 % 1009,5 hPa 0,0 mm 8,0 km/h (2 Bft) W-SW 247 0 min 0 UV-I 0 W/m 16,1 km/h (3 Bft)
24.07.2007 23:30 14,2 C 84 % 1009,6 hPa 0,0 mm 6,4 km/h (2 Bft) W-SW 247 0 min 0 UV-I 0 W/m 16,1 km/h (3 Bft)
24.07.2007 23:40 14,2 C 84 % 1009,7 hPa 0,0 mm 6,4 km/h (2 Bft) W-SW 247 0 min 0 UV-I 0 W/m 17,7 km/h (3 Bft)
24.07.2007 23:50 14,3 C 83 % 1009,7 hPa 0,0 mm 8,0 km/h (2 Bft) W 270 0 min 0 UV-I 0 W/m 19,3 km/h (3 Bft)
_ Min-Zeit 23:10 18:00 11:50 - 00:10 - - - - - 00:40
Minimum _ 14,1 C 64 % 993,6 hPa - 1,6 km/h (1 Bft) - - - - - 6,4 km/h (2 Bft)
_ Max-Zeit 18:10 13:00 23:40 09:10 15:10 - - 07:30 14:10 18:10 17:10
Maximum _ 17,8 C 91 % 1009,7 hPa 0,8 mm 19,3 km/h
W (3 Bft)
- - 10 min 7 UV-I 598 W/m 46,7 km/h
N (6 Bft)
Durchschnitt _ 15,8 C 80 % 999,7 hPa #10,9 mm 7,8 km/h (2 Bft) W - #2:30 h 2 UV-I 131 W/m 20,9 km/h (4 Bft)